Search for airport 
image banner adimage banner adimage banner ad
image banner ad

3L2 - Sky Ranch

Located in Sandy Valley, United States

ICAO - 3L2, IATA -

Data provided by Airmate  

General information

Coordinates: N35°47'35" W115°37'35"
Elevation is 2599 feet MSL.
Magnetic variation is 14° East
View others Airports in Nevada

Operational data

Special qualification required
Current time UTC:
Current local time:
Weather at : KHND - Henderson Executive ( 49 km )
METAR: KHND 130956Z AUTO 19010KT 10SM CLR 26/M08 A2983 RMK AO2 SLP085 T02611083
TAF: KHND 130520Z 1306/1406 19010KT P6SM FEW250 FM131200 VRB05KT P6SM FEW250 FM132100 20015G25KT P6SM SKC
View NOTAMs / SUP AIP / TFR affecting this airport [VIEW]
Communications frequencies: [VIEW]

Runways:

RWY identifierQFULength (ft)Width (ft)SurfaceLDA (ft)
03334045ASPH
21334045ASPH
12134°3300105EARTH
30314°3300105EARTH

Airport contact information

Address: Sandy Valley United States

Satellite view of 3L2